Location: Ravensburg
(48.5621°N, 13.4088°E)
Time: 15:50:25
(UTC+02:00)

Tiangong 2 - Visible Passes

Search period start: 20 May 2018 00:00
Search period end: 30 May 2018 00:00
Orbit: 382 x 386 km, 42.8° (Epoch: 20 May)

Date Brightness Start Highest point End Pass type
(mag) Time Alt. Az. Time Alt. Az. Time Alt. Az.
22 May 2.8 21:59:20 10° SSW 22:01:20 16° SSE 22:01:48 15° SSE visible
23 May 2.2 22:35:12 10° SW 22:37:44 25° S 22:37:44 25° S visible
24 May 2.5 21:35:49 10° SW 21:38:14 20° SSE 21:40:40 10° ESE visible
24 May 2.7 23:11:42 10° WSW 23:13:16 21° SW 23:13:16 21° SW visible
25 May 2.1 22:12:03 10° WSW 22:14:48 27° S 22:16:21 18° SE visible
25 May 3.8 23:48:31 10° WSW 23:48:32 10° WSW 23:48:32 10° WSW visible
26 May 2.2 22:48:42 10° WSW 22:51:24 26° S 22:51:28 26° S visible
27 May 2.2 21:48:58 10° WSW 21:51:44 28° S 21:54:17 11° ESE visible
27 May 3.4 23:25:44 10° WSW 23:26:28 13° SW 23:26:28 13° SW visible
28 May 2.5 22:25:45 10° WSW 22:28:17 22° SSW 22:29:14 19° SSE visible
29 May 3.4 23:03:12 10° SW 23:04:09 12° SW 23:04:09 12° SW visible
